[[{"header":{"parameterUnit":"m.s-1","parameterCategory":1,"la1":30.2991,"la2":30.254,"lo1":-89.0895,"lo2":-89.0444,"dy":0.0017,"dx":0.0017,"nx":28,"ny":28,"refTime":"2024-10-07T21:00:00:Z","depth":0,"parameterNumber":2,"parameterNumberName":"U-component_of_WINDS"},"data":[0,0,0,0,0,0,0,0,0,0,0,0,0,0,0,0,0,0,0,0,0,0,0,0,0,0,0,0,0,0,0,0,0,0,0,0,0,0,0,0,0,0,0,0,0,0,0,0,0,0,0,0,0,0,0,0,0,0,-1.8843,-1.8842,0,-1.8786,-1.8786,-1.8785,-1.8757,-1.8757,-1.8757,-1.8757,-1.87,-1.8698,-1.8697,0,0,0,0,0,0,0,0,0,0,0,0,0,-1.8926,-1.8924,-1.8843,-1.8842,-1.8841,-1.8786,-1.8786,-1.8785,-1.8757,-1.8757,-1.8757,-1.8757,-1.87,-1.8698,-1.8696,0,0,0,0,0,0,0,0,0,0,0,0,0,-1.8881,-1.8924,-1.8843,-1.8821,-1.8818,-1.8787,-1.8786,-1.8785,-1.8757,-1.8757,-1.8757,-1.8757,-1.8701,-1.8698,-1.8696,-1.8682,0,0,-1.8689,-1.8688,0,0,0,0,0,0,0,0,-1.8884,-1.8878,-1.8825,-1.8822,-1.8819,-1.8779,-1.8794,-1.875,-1.8757,-1.878,-1.8757,-1.8757,-1.8726,-1.8722,-1.8711,-1.868,-1.8677,-1.8689,-1.8688,-1.8687,-1.8686,0,0,0,0,0,0,0,-1.8887,-1.8881,-1.882,-1.8824,-1.8821,-1.8813,-1.8807,-1.8785,-1.8754,-1.8778,-1.8776,-1.877,-1.8724,-1.8713,-1.8709,-1.8676,-1.8689,-1.8687,-1.8686,-1.8685,-1.863,-1.863,0,0,0,0,0,0,-1.8894,-1.8883,-1.8822,-1.8819,-1.8852,-1.8812,-1.8805,-1.8792,-1.8754,-1.8748,-1.877,-1.8769,-1.8717,-1.8712,-1.8707,-1.8688,-1.8687,-1.8685,-1.8683,-1.863,-1.863,-1.863,0,0,0,0,0,0,-1.8896,-1.8889,-1.8824,-1.885,-1.8842,-1.8811,-1.8796,-1.8791,-1.8779,-1.8748,-1.8742,-1.8764,-1.8717,-1.8711,-1.8688,-1.8685,-1.8683,-1.8681,-1.863,-1.863,-1.863,-1.8649,0,0,0,0,0,0,-1.8898,-1.8889,-1.8884,-1.8851,-1.884,-1.8807,-1.8796,-1.879,-1.8775,-1.8773,-1.8741,-1.8735,-1.8716,-1.8692,-1.8686,-1.8682,-1.868,-1.863,-1.863,-1.863,-1.8649,-1.865,-1.8651,0,0,0,0,0,-1.8901,-1.8892,-1.8884,-1.8877,-1.8833,-1.8806,-1.8801,-1.8779,-1.8775,-1.8769,-1.8749,-1.8736,-1.8687,-1.869,-1.8683,-1.8679,-1.863,-1.863,-1.863,-1.8648,-1.865,-1.8651,0,0,0,0,0,0,-1.8926,-1.8887,-1.8878,-1.8857,-1.8835,-1.8802,-1.8794,-1.8781,-1.876,-1.8759,-1.8733,-1.8726,-1.8706,-1.869,-1.8694,-1.8663,-1.8657,-1.8656,-1.8674,-1.8675,-1.8676,-1.868,-1.8678,0,0,0,0,0,-1.8929,-1.8911,-1.8878,-1.8863,-1.8853,-1.8825,-1.8813,-1.8798,-1.8774,-1.8765,-1.8743,-1.872,-1.8699,-1.8686,-1.8665,-1.8646,-1.8639,-1.864,-1.8641,-1.8642,-1.8641,-1.8629,-1.8629,-1.8629,-1.8629,-1.8629,0,0,-1.8935,-1.8912,-1.8902,-1.8867,-1.8849,-1.883,-1.8817,-1.8799,-1.8785,-1.8762,-1.8739,-1.8723,-1.8696,-1.8675,-1.8665,-1.8661,-1.8639,-1.8642,-1.8643,-1.8641,-1.8629,-1.8629,-1.8629,-1.8629,-1.8629,-1.8629,0,0,-1.8937,-1.8917,-1.8903,-1.8884,-1.8856,-1.8837,-1.8834,-1.8802,-1.879,-1.8767,-1.8749,-1.8732,-1.8697,-1.8678,-1.8664,-1.8658,-1.8646,-1.8652,-1.8658,-1.8646,-1.8646,-1.8646,-1.8644,-1.8643,-1.8652,-1.8652,-1.8652,0,-1.8948,-1.8919,-1.8897,-1.8878,-1.8864,-1.8842,-1.8827,-1.881,-1.8776,-1.8766,-1.8763,-1.8718,-1.8698,-1.8672,-1.8671,-1.8661,-1.8655,-1.8656,-1.8648,-1.8648,-1.8647,-1.8644,-1.8644,-1.8652,-1.8652,-1.8652,-1.8652,0,-1.8934,-1.8915,-1.8906,-1.8874,-1.8858,-1.8841,-1.8816,-1.8803,-1.8789,-1.8771,-1.8748,-1.8724,-1.8697,-1.869,-1.8677,-1.8662,-1.8661,-1.8653,-1.8647,-1.8649,-1.8645,-1.8644,-1.8654,-1.8653,-1.8653,-1.8653,0,0,-1.895,-1.8905,-1.8902,-1.8887,-1.8854,-1.8838,-1.882,-1.8794,-1.8783,-1.8761,-1.8745,-1.8716,-1.8708,-1.8692,-1.8677,-1.8667,-1.8663,-1.866,-1.8659,-1.8661,-1.8645,-1.865,-1.865,-1.8655,-1.8654,-1.8654,-1.8647,0,-1.8946,-1.8913,-1.8892,-1.8867,-1.8849,-1.8828,-1.8812,-1.879,-1.8773,-1.8755,-1.8735,-1.8715,-1.8707,-1.8697,-1.8686,-1.8666,-1.8659,-1.8666,-1.8639,-1.8639,-1.8646,-1.8648,-1.8654,-1.8648,-1.8646,-1.8645,-1.8645,0,-1.8938,-1.8915,-1.8889,-1.8857,-1.8849,-1.8835,-1.8809,-1.8792,-1.8767,-1.8755,-1.8737,-1.8721,-1.8701,-1.8697,-1.8669,-1.8674,-1.8662,-1.865,-1.865,-1.8646,-1.8642,-1.8644,-1.8646,-1.8645,-1.8643,-1.8643,-1.8643,0,-1.8951,-1.8914,-1.8893,-1.8881,-1.8844,-1.8835,-1.8819,-1.8794,-1.8779,-1.8757,-1.8747,-1.8722,-1.8709,-1.8691,-1.8668,-1.8668,-1.8643,-1.8637,-1.8632,-1.8633,-1.8627,-1.8628,-1.8627,-1.8621,-1.8621,-1.8621,-1.8621,0,-1.8949,-1.8933,-1.8899,-1.8886,-1.8868,-1.8843,-1.8826,-1.8808,-1.8786,-1.8769,-1.875,-1.8735,-1.8707,-1.8688,-1.8671,-1.865,-1.8644,-1.8634,-1.8629,-1.8635,-1.8636,-1.8627,-1.8626,-1.862,-1.862,-1.862,-1.862,0,-1.896,-1.8936,-1.8912,-1.8879,-1.887,-1.8858,-1.883,-1.8816,-1.8798,-1.8777,-1.8771,-1.8742,-1.8719,-1.8695,-1.8664,-1.8653,-1.8632,-1.8626,-1.8641,-1.8638,-1.8634,-1.8635,-1.8627,-1.8624,-1.862,-1.862,-1.862,0,-1.896,-1.8947,-1.8913,-1.89,-1.8885,-1.8865,-1.885,-1.8825,-1.881,-1.878,-1.877,-1.8746,-1.8725,-1.8689,-1.8665,-1.8641,-1.8634,-1.8633,-1.863,-1.8637,-1.8633,-1.8634,-1.8633,-1.8634,-1.8634,-1.8634,-1.8634,0,-1.8962,-1.8951,-1.893,-1.8905,-1.8888,-1.8867,-1.8845,-1.8836,-1.8807,-1.8792,-1.8767,-1.8751,-1.8719,-1.8695,-1.8668,-1.8652,-1.8638,-1.8635,-1.8633,-1.8638,-1.8647,-1.8642,-1.8643,-1.8635,-1.8635,-1.8635,-1.8635,-1.8635,-1.8967,-1.8955,-1.8929,-1.8906,-1.8887,-1.8867,-1.8853,-1.8832,-1.8812,-1.8784,-1.8771,-1.8746,-1.8721,-1.8683,-1.8667,-1.8648,-1.8644,-1.8641,-1.864,-1.8639,-1.864,-1.8651,-1.8643,-1.8643,-1.8643,-1.8643,-1.8643,0,-1.8968,-1.895,-1.8929,-1.8899,-1.8881,-1.887,-1.8846,-1.8831,-1.881,-1.8787,-1.8767,-1.8739,-1.8716,-1.869,-1.8665,-1.8654,-1.8647,-1.8648,-1.8649,-1.8645,-1.8645,-1.865,-1.8654,-1.8654,-1.8654,-1.8654,-1.8654,-1.8654,-1.8966,-1.8945,-1.893,-1.8899,-1.8881,-1.8857,-1.8844,-1.8825,-1.8807,-1.8776,-1.8757,-1.874,-1.8716,-1.8689,-1.8667,-1.866,-1.8651,-1.8654,-1.8645,-1.8646,-1.8645,-1.8644,-1.8648,-1.8652,-1.8652,-1.8646,-1.8646,-1.8646]},{"header":{"parameterUnit":"m.s-1","parameterCategory":1,"la1":30.2991,"la2":30.254,"lo1":-89.0895,"lo2":-89.0444,"dy":0.0017,"dx":0.0017,"nx":28,"ny":28,"refTime":"2024-10-07T21:00:00:Z","depth":0,"parameterNumber":3,"parameterNumberName":"V-component_of_WINDS"},"data":[0,0,0,0,0,0,0,0,0,0,0,0,0,0,0,0,0,0,0,0,0,0,0,0,0,0,0,0,0,0,0,0,0,0,0,0,0,0,0,0,0,0,0,0,0,0,0,0,0,0,0,0,0,0,0,0,0,0,-3.0741,-3.0741,0,-3.0702,-3.0701,-3.0701,-3.0765,-3.0768,-3.077,-3.0772,-3.0728,-3.0725,-3.0722,0,0,0,0,0,0,0,0,0,0,0,0,0,-3.087,-3.0867,-3.0741,-3.0741,-3.074,-3.0702,-3.0701,-3.0701,-3.0765,-3.0768,-3.077,-3.0773,-3.0729,-3.0725,-3.0721,0,0,0,0,0,0,0,0,0,0,0,0,0,-3.082,-3.0866,-3.0741,-3.0768,-3.077,-3.0702,-3.0701,-3.0701,-3.0764,-3.0768,-3.0771,-3.0774,-3.073,-3.0726,-3.0721,-3.0624,0,0,-3.0706,-3.0704,0,0,0,0,0,0,0,0,-3.0823,-3.0816,-3.0764,-3.0766,-3.0768,-3.0742,-3.0731,-3.0675,-3.0764,-3.0766,-3.0772,-3.0776,-3.073,-3.0725,-3.071,-3.0622,-3.062,-3.0706,-3.0703,-3.0701,-3.0699,0,0,0,0,0,0,0,-3.0826,-3.0818,-3.0726,-3.0763,-3.0766,-3.0781,-3.0778,-3.072,-3.073,-3.0766,-3.0771,-3.0766,-3.0731,-3.0715,-3.071,-3.062,-3.0706,-3.0701,-3.0698,-3.0697,-3.0452,-3.0449,0,0,0,0,0,0,-3.0827,-3.082,-3.0727,-3.0724,-3.0804,-3.0776,-3.0772,-3.0747,-3.0731,-3.0731,-3.0763,-3.0769,-3.0722,-3.0715,-3.0708,-3.0595,-3.0701,-3.0696,-3.0693,-3.0456,-3.0451,-3.0447,0,0,0,0,0,0,-3.083,-3.0818,-3.0728,-3.0774,-3.0763,-3.077,-3.0741,-3.0744,-3.0728,-3.0728,-3.073,-3.0744,-3.0724,-3.0715,-3.0645,-3.0594,-3.0694,-3.0689,-3.046,-3.0454,-3.0449,-3.0366,0,0,0,0,0,0,-3.0833,-3.0819,-3.0782,-3.0772,-3.0761,-3.0666,-3.0738,-3.0741,-3.072,-3.0727,-3.0711,-3.0712,-3.0726,-3.0652,-3.064,-3.0589,-3.0686,-3.0464,-3.0457,-3.0451,-3.0373,-3.0358,-3.0346,0,0,0,0,0,-3.0837,-3.0759,-3.078,-3.0768,-3.0715,-3.0663,-3.0656,-3.0675,-3.0716,-3.0679,-3.0679,-3.0712,-3.0602,-3.0645,-3.0632,-3.0578,-3.0468,-3.0459,-3.0451,-3.0379,-3.0361,-3.0346,0,0,0,0,0,0,-3.0761,-3.0758,-3.0781,-3.0698,-3.068,-3.0674,-3.0628,-3.0655,-3.0625,-3.0633,-3.0657,-3.0653,-3.0578,-3.0571,-3.0619,-3.0485,-3.0542,-3.0531,-3.0491,-3.0474,-3.046,-3.0462,-3.0682,0,0,0,0,0,-3.0735,-3.0693,-3.0693,-3.0619,-3.061,-3.062,-3.0598,-3.0615,-3.0597,-3.0589,-3.0585,-3.0565,-3.0527,-3.05,-3.0465,-3.0374,-3.0371,-3.0331,-3.0317,-3.0306,-3.0295,-3.0247,-3.0229,-3.0421,-3.0421,-3.0421,0,0,-3.0679,-3.0673,-3.0645,-3.0604,-3.0592,-3.0548,-3.0613,-3.0563,-3.0531,-3.0581,-3.0515,-3.0511,-3.0492,-3.0411,-3.0375,-3.0403,-3.0242,-3.0295,-3.0286,-3.0282,-3.0237,-3.0219,-3.0203,-3.0415,-3.0416,-3.0417,0,0,-3.0555,-3.0547,-3.0485,-3.0473,-3.0455,-3.0463,-3.0448,-3.0438,-3.0438,-3.0373,-3.041,-3.0372,-3.0304,-3.0289,-3.0272,-3.0146,-3.0175,-3.0134,-3.006,-3.0013,-2.9998,-2.9985,-2.9939,-2.9922,-3.0124,-3.0123,-3.0123,0,-3.0488,-3.0424,-3.0449,-3.0397,-3.0378,-3.0425,-3.0362,-3.0348,-3.0319,-3.0305,-3.0338,-3.0255,-3.0245,-3.0162,-3.0131,-3.0116,-3.01,-3.0134,-2.9999,-2.9986,-2.9973,-2.993,-2.9913,-3.0119,-3.0119,-3.012,-3.012,0,-3.0342,-3.0297,-3.0249,-3.0222,-3.0198,-3.014,-3.0156,-3.0129,-3.0149,-3.0153,-3.0086,-3.0077,-3.004,-3.0022,-3.004,-2.9941,-2.9959,-2.9995,-3.0052,-2.995,-2.9909,-2.9893,-3.0111,-3.0113,-3.0115,-3.0116,0,0,-3.0165,-3.0155,-3.0137,-3.0126,-3.0111,-3.0076,-3.0022,-2.9988,-2.9964,-2.9943,-2.9897,-2.9841,-2.9875,-2.9856,-2.9873,-2.9832,-2.9732,-2.9873,-2.9873,-2.9846,-2.9622,-2.9594,-2.9574,-2.9752,-2.9749,-2.9747,-2.9624,0,-3.0041,-2.9948,-2.997,-2.9878,-2.9836,-2.9882,-2.9834,-2.982,-2.9824,-2.9789,-2.9793,-2.9752,-2.98,-2.9789,-2.9751,-2.9752,-2.9687,-2.9762,-2.9709,-2.9706,-2.971,-2.9553,-2.9523,-2.9407,-2.9608,-2.9605,-2.9604,0,-2.9883,-2.9859,-2.9762,-2.9756,-2.974,-2.9697,-2.9668,-2.9635,-2.962,-2.9626,-2.9606,-2.9632,-2.9578,-2.9638,-2.9563,-2.9613,-2.9594,-2.9591,-2.9587,-2.9581,-2.9647,-2.9542,-2.937,-2.9352,-2.9579,-2.9581,-2.9583,0,-2.9763,-2.9706,-2.9641,-2.963,-2.9621,-2.959,-2.9585,-2.9574,-2.9553,-2.9528,-2.9514,-2.9483,-2.9465,-2.944,-2.9457,-2.9499,-2.9379,-2.9441,-2.9382,-2.9381,-2.9352,-2.9353,-2.9173,-2.9342,-2.9343,-2.9343,-2.9343,0,-2.9621,-2.9559,-2.9587,-2.9546,-2.948,-2.9507,-2.944,-2.944,-2.943,-2.939,-2.9428,-2.939,-2.9415,-2.9379,-2.9392,-2.9328,-2.932,-2.9323,-2.9326,-2.9318,-2.9318,-2.9304,-2.9311,-2.9338,-2.9339,-2.934,-2.9341,0,-2.9473,-2.9489,-2.9421,-2.942,-2.9419,-2.9369,-2.9368,-2.9331,-2.9339,-2.9288,-2.9278,-2.9289,-2.9249,-2.9265,-2.9221,-2.923,-2.9148,-2.9163,-2.9153,-2.9156,-2.9096,-2.9101,-2.8899,-2.8874,-2.9061,-2.9059,-2.9057,0,-2.938,-2.9335,-2.933,-2.9307,-2.9299,-2.9261,-2.9241,-2.9267,-2.9243,-2.9225,-2.9189,-2.9153,-2.9125,-2.9058,-2.9062,-2.903,-2.9044,-2.8976,-2.9039,-2.9032,-2.9041,-2.9043,-2.9038,-2.8962,-2.896,-2.8958,-2.8956,0,-2.9213,-2.9224,-2.9194,-2.9166,-2.9141,-2.912,-2.9102,-2.9081,-2.9106,-2.9078,-2.9038,-2.9017,-2.8974,-2.8937,-2.8909,-2.8903,-2.8933,-2.8937,-2.8922,-2.8911,-2.8907,-2.8907,-2.9117,-2.8941,-2.8942,-2.8944,-2.8944,-2.8945,-2.9089,-2.9051,-2.9042,-2.9007,-2.8998,-2.8981,-2.8946,-2.8951,-2.8919,-2.8886,-2.8904,-2.8858,-2.8846,-2.8811,-2.8802,-2.8765,-2.8792,-2.8769,-2.8763,-2.8757,-2.8748,-2.8915,-2.876,-2.8761,-2.8761,-2.8762,-2.8762,0,-2.8923,-2.8921,-2.8889,-2.8864,-2.8836,-2.887,-2.8853,-2.8827,-2.8787,-2.8774,-2.8747,-2.8701,-2.8667,-2.8669,-2.8637,-2.8608,-2.8621,-2.8598,-2.86,-2.8598,-2.8727,-2.8743,-2.8588,-2.8588,-2.8588,-2.8588,-2.8588,-2.8589,-2.8833,-2.8771,-2.8781,-2.8715,-2.8713,-2.8669,-2.8656,-2.8641,-2.8631,-2.8579,-2.8551,-2.8554,-2.8548,-2.8516,-2.8486,-2.8487,-2.8473,-2.8445,-2.8451,-2.8571,-2.8589,-2.8605,-2.862,-2.8442,-2.8442,-2.8325,-2.8324,-2.8323]}]]